Location: ??????
(41.3164°N, 22.6615°E)
Time: 09:53:44
(UTC+00:00)

Cosmos 2263 Rocket - Pass Details

Date: 16 October 2021
Orbit: 825 x 847 km, 71.0° (Epoch: 07 December)

Event Time Altitude Azimuth Distance (km) Brightness Sun altitude
Rises 17:20:59 0° 339° (NNW) 3,372 5.7 -18.4°
Reaches altitude 10° 17:23:29 10° 344° (NNW) 2,434 4.8 -18.9°
Maximum altitude 17:28:57 56° 62° (ENE) 977 2.2 -19.9°
Enters shadow 17:30:57 36° 121° (ESE) 1,272 2.6 -20.3°
